QPF
0.00 0.00 0.00 0.00 0.00 0.00 0.00 0.00 0.00 0.00 0.00 0.00 0.00 0.00 0.00 0.00 0.00 0.00 0.00 0.00 0.00 0.00 0.00 0.00 0.00 0.00 0.00 0.00 0.00 0.00 0.00 0.00 0.00 0.00 0.00 0.00 0.00 0.00 0.00 0.00 0.00 0.00 0.00 0.00 0.00 0.00 0.00
0.00 0.00 0.00 0.00 0.00 0.00 0.00 0.00 0.00 0.00 0.00 0.00 0.00 0.00 0.00 0.00 0.00 0.00 0.00 0.00 0.00 0.00 0.00 0.00 0.00 0.00 0.00 0.00 0.00 0.00 0.00 0.00 0.00 0.00 0.00 0.00 0.00 0.00 0.00 0.00 0.00 0.00 0.01 0.00 0.00 0.00 0.00
0.00 0.00 0.00 0.00 0.00 0.00 0.00 0.00 0.00 0.00 0.00 0.00 0.00 0.00 0.00 0.00 0.00 0.00 0.00 0.00 0.00 0.00 0.00 0.00 0.00 0.00 0.00 0.00 0.00 0.00 0.00 0.00 0.00 0.00 0.00 0.00 0.00 0.00 0.00 0.00 0.00 0.00 0.00 0.00 0.00 0.00 0.00
0.00 0.00 0.00 0.00 0.00 0.00 0.00 0.00 0.00 0.00 0.00 0.00 0.00 0.00 0.00 0.00 0.00 0.00 0.00 0.00 0.00 0.00 0.00 0.00 0.00 0.00 0.00 0.00 0.00 0.00 0.00 0.00 0.00 0.00 0.00 0.00 0.00 0.00 0.00 0.00 0.00 0.00 0.00 0.00 0.00 0.00 0.00
0.00 0.00 0.00 0.00 0.00 0.00 0.00 0.00 0.00 0.00 0.00 0.00 0.00 0.00 0.00 0.00 0.00 0.00 0.00 0.00 0.00 0.00 0.00 0.00 0.00 0.00 0.00 0.00 0.00 0.00 0.00 0.00 0.00 0.00 0.00 0.00 0.00 0.00 0.00 0.00 0.00 0.00 0.00 0.00 0.00 0.00 0.00
0.00 0.00 0.00 0.00 0.00 0.00 0.00 0.00 0.00 0.00 0.00 0.00 0.00 0.00 0.00 0.00 0.00 0.00 0.00 0.00 0.00 0.00 0.00 0.00 0.00 0.00 0.00 0.00 0.00 0.00 0.00 0.00 0.00 0.00 0.00 0.00 0.00 0.00 0.00 0.00 0.00 0.00 0.00 0.00 0.00 0.00 0.00
0.00 0.00 0.00 0.00 0.00 0.00 0.00 0.00 0.00 0.00 0.00 0.00 0.00 0.00 0.00 0.00 0.00 0.00 0.00 0.00 0.00 0.00 0.00 0.00 0.00 0.00 0.00 0.00 0.00 0.00 0.00 0.00 0.00 0.00 0.00 0.00 0.00 0.00 0.00 0.00 0.00 0.00 0.00 0.00 0.00 0.00 0.01
0.00 0.00 0.00 0.00 0.00 0.00 0.00 0.00 0.00 0.00 0.00 0.00 0.00 0.00 0.00 0.00 0.00 0.00 0.00 0.00 0.00 0.00 0.00 0.00 0.00 0.00 0.00 0.00 0.00 0.00 0.00 0.00 0.00 0.00 0.00 0.00 0.00 0.00 0.00 0.00 0.00 0.00 0.00 0.00 0.00 0.00 0.00
0.00 0.00 0.00 0.00 0.00 0.00 0.00 0.00 0.00 0.00 0.00 0.00 0.00 0.00 0.00 0.00 0.00 0.00 0.00 0.00 0.00 0.00 0.00 0.00 0.00 0.00 0.00 0.00 0.00 0.00 0.00 0.00 0.00 0.00 0.00 0.00 0.00 0.00 0.00 0.00 0.00 0.00 0.00 0.00 0.00 0.00 0.00
0.00 0.00 0.00 0.00 0.00 0.00 0.00 0.00 0.00 0.00 0.00 0.00 0.00 0.00 0.00 0.00 0.00 0.00 0.00 0.00 0.00 0.00 0.00 0.00 0.00 0.00 0.00 0.00 0.00 0.00 0.00 0.00 0.00 0.00 0.00 0.00 0.00 0.00 0.00 0.00 0.00 0.00 0.00 0.00 0.00 0.00 0.00
0.00 0.00 0.00 0.00 0.00 0.00 0.00 0.00 0.00 0.00 0.00 0.00 0.00 0.00 0.00 0.00 0.00 0.00 0.00 0.00 0.00 0.00 0.00 0.00 0.00 0.00 0.00 0.00 0.00 0.00 0.00 0.00 0.00 0.00 0.00 0.00 0.00 0.00 0.00 0.00 0.00 0.00 0.00 0.00 0.00 0.00 0.00
0.00 0.00 0.00 0.00 0.00 0.00 0.00 0.00 0.00 0.00 0.00 0.00 0.00 0.00 0.00 0.00 0.00 0.00 0.00 0.00 0.00 0.00 0.00 0.00 0.00 0.00 0.00 0.00 0.00 0.00 0.00 0.00 0.00 0.00 0.00 0.00 0.00 0.00 0.00 0.00 0.00 0.00 0.00 0.00 0.00 0.00 0.00
0.00 0.00 0.00 0.00 0.00 0.00 0.00 0.00 0.00 0.00 0.00 0.00 0.00 0.00 0.00 0.00 0.00 0.00 0.00 0.00 0.00 0.00 0.00 0.00 0.00 0.00 0.00 0.00 0.00 0.00 0.00 0.00 0.00 0.00 0.00 0.00 0.00 0.00 0.00 0.00 0.00 0.00 0.00 0.00 0.00 0.00 0.00
0.00 0.00 0.00 0.00 0.00 0.00 0.00 0.00 0.00 0.00 0.00 0.00 0.00 0.00 0.00 0.00 0.00 0.00 0.00 0.00 0.00 0.00 0.00 0.00 0.00 0.00 0.00 0.00 0.00 0.00 0.00 0.00 0.00 0.00 0.00 0.00 0.00 0.00 0.00 0.00 0.00 0.00 0.00 0.00 0.00 0.00 0.00
0.00 0.00 0.00 0.00 0.00 0.00 0.00 0.00 0.00 0.00 0.00 0.00 0.00 0.00 0.00 0.00 0.00 0.00 0.00 0.00 0.00 0.00 0.00 0.00 0.00 0.00 0.00 0.00 0.00 0.00 0.00 0.00 0.00 0.00 0.00 0.00 0.00 0.00 0.00 0.00 0.00 0.00 0.00 0.00 0.00 0.00 0.00
0.00 0.00 0.00 0.00 0.00 0.00 0.00 0.00 0.00 0.00 0.00 0.00 0.00 0.00 0.00 0.00 0.00 0.00 0.00 0.00 0.00 0.00 0.00 0.00 0.00 0.00 0.00 0.00 0.00 0.00 0.00 0.00 0.00 0.00 0.00 0.00 0.00 0.00 0.00 0.00 0.00 0.00 0.00 0.00 0.00 0.00 0.00
0.00 0.00 0.00 0.00 0.00 0.00 0.00 0.00 0.00 0.00 0.00 0.00 0.00 0.00 0.00 0.00 0.00 0.00 0.00 0.00 0.00 0.00 0.00 0.00 0.00 0.00 0.00 0.00 0.00 0.00 0.00 0.00 0.00 0.00 0.00 0.00 0.00 0.00 0.00 0.00 0.00 0.00 0.00 0.00 0.00 0.00 0.00
0.00 0.00 0.00 0.00 0.00 0.00 0.00 0.00 0.00 0.00 0.00 0.00 0.00 0.00 0.00 0.00 0.00 0.00 0.00 0.00 0.00 0.00 0.00 0.00 0.00 0.00 0.00 0.00 0.00 0.00 0.00 0.00 0.00 0.00 0.00 0.00 0.00 0.00 0.00 0.00 0.00 0.00 0.00 0.00 0.00 0.00 0.00
0.00 0.00 0.00 0.00 0.00 0.00 0.00 0.00 0.00 0.00 0.00 0.00 0.00 0.00 0.00 0.00 0.00 0.00 0.00 0.00 0.00 0.00 0.00 0.00 0.00 0.00 0.00 0.00 0.00 0.00 0.00 0.00 0.00 0.00 0.00 0.00 0.00 0.00 0.00 0.00 0.00 0.00 0.00 0.00 0.00 0.00 0.00
0.00 0.00 0.00 0.00 0.00 0.00 0.00 0.00 0.00 0.00 0.00 0.00 0.00 0.00 0.00 0.00 0.00 0.00 0.00 0.00 0.00 0.00 0.00 0.00 0.00 0.00 0.00 0.00 0.00 0.00 0.00 0.00 0.00 0.00 0.00 0.00 0.00 0.00 0.00 0.00 0.00 0.00 0.00 0.00 0.00 0.00 0.00
0.00 0.00 0.00 0.00 0.00 0.00 0.00 0.00 0.00 0.00 0.00 0.00 0.00 0.00 0.00 0.00 0.00 0.00 0.00 0.00 0.00 0.00 0.00 0.00 0.00 0.00 0.00 0.00 0.00 0.00 0.00 0.00 0.00 0.00 0.00 0.00 0.00 0.00 0.00 0.00 0.00 0.00 0.00 0.00 0.00 0.00 0.00
0.00 0.00 0.00 0.00 0.00 0.00 0.00 0.01 0.00 0.00 0.00 0.00 0.00 0.00 0.00 0.00 0.00 0.00 0.00 0.00 0.00 0.00 0.00 0.00 0.00 0.00 0.00 0.00 0.00 0.00 0.00 0.00 0.00 0.00 0.00 0.00 0.00 0.00 0.00 0.00 0.00 0.00 0.00 0.00 0.00 0.00 0.00
0.00 0.00 0.00 0.00 0.00 0.00 0.01 0.01 0.01 0.00 0.00 0.00 0.00 0.00 0.00 0.00 0.00 0.00 0.00 0.01 0.01 0.01 0.00 0.00 0.01 0.00 0.00 0.00 0.00 0.00 0.00 0.00 0.00 0.00 0.00 0.00 0.00 0.00 0.00 0.00 0.00 0.00 0.00 0.00 0.00 0.00 0.00
0.00 0.00 0.00 0.00 0.00 0.01 0.01 0.01 0.01 0.00 0.00 0.00 0.00 0.00 0.00 0.00 0.00 0.00 0.00 0.01 0.01 0.01 0.01 0.00 0.00 0.01 0.00 0.00 0.00 0.00 0.00 0.00 0.00 0.00 0.00 0.00 0.00 0.00 0.00 0.00 0.00 0.00 0.00 0.00 0.00 0.00 0.00
0.00 0.00 0.00 0.00 0.00 0.00 0.00 0.01 0.01 0.00 0.00 0.00 0.00 0.00 0.00 0.00 0.00 0.00 0.00 0.01 0.00 0.00 0.00 0.00 0.00 0.00 0.00 0.00 0.00 0.00 0.00 0.00 0.00 0.00 0.00 0.00 0.00 0.00 0.00 0.00 0.01 0.00 0.00 0.00 0.00 0.00 0.00
0.00 0.00 0.00 0.00 0.00 0.00 0.01 0.01 0.01 0.00 0.00 0.00 0.00 0.00 0.00 0.00 0.00 0.00 0.00 0.00 0.00 0.00 0.00 0.00 0.00 0.00 0.00 0.00 0.01 0.00 0.00 0.00 0.00 0.00 0.00 0.00 0.01 0.01 0.01 0.01 0.02 0.01 0.00 0.00 0.00 0.00 0.00
0.00 0.00 0.00 0.00 0.00 0.00 0.00 0.00 0.01 0.01 0.00 0.00 0.00 0.00 0.00 0.00 0.00 0.00 0.00 0.00 0.00 0.00 0.00 0.00 0.00 0.00 0.00 0.00 0.01 0.01 0.00 0.00 0.01 0.00 0.00 0.01 0.02 0.01 0.00 0.01 0.01 0.01 0.00 0.00 0.00 0.00 0.00
0.00 0.00 0.00 0.00 0.00 0.00 0.00 0.00 0.00 0.00 0.00 0.00 0.00 0.00 0.00 0.00 0.00 0.00 0.00 0.00 0.00 0.00 0.00 0.00 0.00 0.00 0.00 0.00 0.00 0.00 0.00 0.00 0.01 0.01 0.00 0.00 0.00 0.00 0.00 0.01 0.01 0.01 0.00 0.00 0.00 0.00 0.00
0.00 0.00 0.00 0.00 0.00 0.00 0.00 0.00 0.00 0.00 0.00 0.00 0.00 0.00 0.00 0.00 0.00 0.00 0.00 0.00 0.00 0.01 0.00 0.00 0.00 0.00 0.00 0.00 0.00 0.00 0.00 0.00 0.00 0.01 0.00 0.00 0.00 0.00 0.00 0.00 0.00 0.00 0.00 0.00 0.00 0.00 0.00
MSLP
1024.63 1024.25 1023.85 1023.47 1023.08 1022.62 1022.12 1021.58 1021.00 1020.42 1019.81 1019.12 1018.41 1017.79 1017.13 1016.40 1015.67 1014.93 1014.50 1013.97 1013.48 1012.88 1012.56 1012.37 1012.48 1012.63 1012.71 1011.65 1009.52 1008.55 1008.04 1008.11 1008.58 1008.86 1008.91 1009.10 1009.39 1009.35 1009.21 1009.30 1009.27 1008.89 1008.25 1007.99 1007.70 1007.51 1007.36
1024.79 1024.38 1023.95 1023.54 1023.10 1022.63 1022.16 1021.61 1021.04 1020.47 1019.87 1019.16 1018.32 1017.66 1016.99 1016.16 1015.36 1014.61 1014.08 1013.58 1013.12 1012.63 1012.20 1011.98 1012.33 1012.53 1012.16 1010.48 1009.17 1008.91 1008.54 1008.66 1008.57 1008.64 1008.92 1009.07 1009.02 1009.07 1009.07 1009.11 1008.76 1008.21 1008.22 1007.81 1007.36 1006.97 1006.91
1024.93 1024.53 1024.09 1023.62 1023.15 1022.69 1022.19 1021.67 1021.06 1020.43 1019.80 1019.11 1018.19 1017.40 1016.67 1015.91 1015.04 1014.31 1013.67 1013.27 1012.81 1012.45 1012.14 1012.03 1012.24 1012.27 1011.40 1009.77 1009.02 1008.97 1008.85 1008.92 1009.02 1008.91 1008.84 1009.15 1009.02 1008.88 1008.87 1008.63 1008.41 1008.17 1007.99 1007.34 1006.61 1006.26 1006.26
1025.03 1024.65 1024.20 1023.71 1023.21 1022.71 1022.19 1021.61 1020.98 1020.38 1019.77 1019.08 1018.26 1017.34 1016.49 1015.67 1014.84 1014.05 1013.23 1012.69 1012.37 1012.22 1012.22 1012.12 1012.10 1011.95 1010.21 1009.14 1009.06 1008.86 1008.88 1009.08 1009.37 1009.42 1009.20 1009.40 1009.19 1009.07 1008.91 1008.64 1008.17 1007.85 1007.72 1006.65 1005.69 1005.58 1005.58
1025.02 1024.67 1024.24 1023.77 1023.24 1022.74 1022.22 1021.64 1021.00 1020.37 1019.71 1018.94 1018.13 1017.28 1016.31 1015.48 1014.68 1014.14 1013.23 1012.38 1012.17 1012.18 1012.26 1012.11 1011.98 1011.47 1009.59 1008.81 1008.82 1008.77 1008.86 1008.65 1009.24 1009.60 1009.43 1009.17 1009.36 1009.29 1009.11 1008.62 1008.03 1007.65 1006.32 1006.18 1005.35 1005.07 1004.91
1025.05 1024.66 1024.23 1023.80 1023.34 1022.83 1022.21 1021.52 1020.86 1020.24 1019.58 1018.78 1017.83 1016.91 1015.96 1015.14 1014.36 1013.80 1013.17 1012.62 1012.32 1012.35 1012.32 1012.05 1011.76 1011.31 1009.40 1009.37 1008.98 1008.75 1008.73 1008.62 1008.85 1009.41 1009.44 1009.30 1009.22 1009.14 1008.97 1008.52 1006.91 1006.58 1006.33 1005.84 1004.98 1004.59 1004.75
1025.28 1024.86 1024.38 1023.84 1023.27 1022.75 1022.19 1021.51 1020.70 1019.75 1019.05 1018.42 1017.69 1016.89 1016.07 1015.19 1014.48 1013.72 1013.21 1012.71 1012.61 1012.41 1011.86 1011.98 1011.91 1011.21 1010.16 1009.67 1009.05 1008.64 1008.69 1008.54 1008.79 1009.17 1009.03 1009.21 1008.82 1007.57 1007.91 1008.38 1008.03 1007.47 1006.63 1005.53 1005.04 1004.60 1004.56
1025.29 1024.87 1024.37 1023.86 1023.31 1022.70 1022.07 1021.33 1020.50 1019.65 1018.98 1018.52 1017.97 1017.15 1016.11 1015.03 1014.32 1013.55 1013.33 1012.99 1013.88 1014.23 1012.95 1011.95 1011.53 1011.06 1010.49 1010.16 1009.29 1008.75 1008.46 1008.59 1008.66 1008.74 1009.16 1009.37 1007.89 1007.87 1008.50 1008.77 1008.50 1007.93 1007.16 1005.99 1005.30 1004.93 1004.71
1025.14 1024.74 1024.26 1023.69 1023.11 1022.50 1021.95 1021.30 1020.63 1019.90 1019.08 1018.52 1017.84 1016.77 1015.58 1014.51 1013.88 1013.48 1013.61 1013.69 1013.99 1013.99 1013.15 1011.79 1011.13 1010.52 1010.23 1010.11 1009.69 1009.44 1009.37 1008.99 1008.57 1008.66 1008.68 1008.07 1007.73 1007.91 1008.34 1008.43 1008.43 1007.84 1007.39 1006.74 1006.14 1005.58 1004.78
1025.02 1024.64 1024.16 1023.65 1023.07 1022.51 1021.94 1021.39 1020.67 1019.95 1018.99 1018.11 1017.26 1016.42 1015.45 1014.30 1013.93 1014.35 1013.91 1013.91 1013.84 1013.93 1012.66 1011.79 1010.90 1010.67 1010.19 1010.07 1009.98 1009.95 1010.05 1009.67 1008.83 1008.42 1008.57 1008.22 1007.71 1007.85 1007.78 1007.61 1008.08 1007.51 1007.43 1007.39 1006.89 1006.29 1004.59
1024.85 1024.38 1023.96 1023.46 1022.93 1022.37 1021.74 1021.10 1020.35 1019.62 1018.77 1017.86 1017.21 1016.48 1015.87 1015.05 1014.67 1014.21 1014.34 1013.92 1013.62 1013.45 1012.39 1011.82 1011.01 1010.85 1010.79 1010.61 1010.95 1010.31 1010.63 1010.02 1009.49 1008.93 1008.75 1007.24 1007.11 1007.22 1007.14 1007.04 1007.55 1006.97 1007.49 1007.30 1007.15 1006.82 1005.91
1024.67 1024.26 1023.77 1023.34 1022.83 1022.28 1021.63 1020.89 1020.09 1019.37 1018.62 1017.63 1016.89 1016.21 1015.79 1015.21 1014.77 1013.89 1013.99 1013.72 1013.27 1012.95 1011.99 1011.85 1011.45 1011.43 1011.17 1011.40 1011.49 1011.30 1011.09 1010.99 1010.90 1009.88 1009.03 1008.01 1007.12 1006.48 1006.09 1006.68 1007.03 1007.13 1007.15 1007.08 1006.96 1006.67 1005.16
1024.39 1023.97 1023.57 1023.01 1022.63 1022.22 1021.54 1020.82 1020.06 1019.23 1018.44 1017.65 1016.76 1015.94 1015.55 1015.02 1014.49 1013.79 1013.83 1013.28 1013.11 1012.48 1012.49 1012.43 1012.22 1012.25 1012.23 1012.28 1012.14 1012.10 1012.15 1011.95 1011.75 1010.73 1009.68 1008.66 1007.23 1006.55 1006.07 1006.02 1006.59 1006.91 1006.71 1006.37 1006.48 1005.33 1003.06
1024.13 1023.73 1023.33 1022.95 1022.51 1021.99 1021.34 1020.76 1020.01 1019.24 1018.26 1017.47 1016.59 1015.79 1015.20 1014.66 1014.29 1013.92 1013.25 1013.25 1012.88 1012.52 1012.57 1012.83 1012.94 1013.04 1012.89 1013.08 1013.09 1012.92 1012.77 1012.87 1013.05 1012.55 1011.33 1009.75 1007.76 1006.88 1006.27 1005.57 1005.50 1005.67 1005.63 1004.70 1004.08 1003.19 1002.97
1024.04 1023.69 1023.19 1022.87 1022.45 1022.02 1021.33 1020.66 1020.01 1019.15 1018.18 1017.18 1016.26 1015.57 1014.90 1014.23 1013.83 1013.67 1013.09 1013.19 1012.89 1012.98 1013.06 1013.10 1013.42 1013.27 1013.48 1013.63 1013.69 1013.33 1013.29 1013.58 1013.92 1013.55 1012.70 1011.46 1009.68 1008.44 1007.49 1006.88 1005.68 1005.16 1004.70 1004.49 1004.08 1003.85 1002.60
1023.78 1023.44 1023.06 1022.76 1022.33 1021.89 1021.26 1020.49 1019.79 1019.03 1018.11 1017.03 1016.65 1015.77 1014.65 1013.94 1013.69 1013.38 1013.35 1013.72 1013.78 1013.71 1013.58 1013.54 1013.36 1013.59 1013.50 1013.75 1013.82 1013.76 1013.77 1014.26 1014.33 1014.46 1013.98 1013.37 1011.63 1009.41 1008.37 1007.37 1006.02 1004.81 1004.61 1004.77 1004.31 1002.93 1001.39
1023.71 1023.36 1022.99 1022.64 1022.21 1021.79 1021.17 1020.37 1019.67 1018.94 1018.06 1017.01 1016.51 1015.26 1014.40 1013.85 1013.39 1013.54 1014.19 1014.86 1014.59 1014.19 1014.07 1013.89 1013.74 1013.75 1013.88 1014.08 1014.20 1014.10 1013.98 1014.64 1014.82 1014.84 1014.63 1014.18 1013.39 1010.35 1009.38 1007.36 1006.03 1005.71 1004.88 1004.07 1003.59 1002.71 1000.99
1023.56 1023.18 1022.83 1022.44 1022.04 1021.61 1021.07 1020.46 1019.78 1019.08 1018.32 1017.49 1017.12 1015.64 1014.88 1013.90 1014.35 1015.99 1016.01 1016.47 1016.15 1014.94 1014.67 1014.35 1014.31 1014.26 1014.39 1014.64 1014.65 1014.57 1014.21 1014.29 1014.99 1015.17 1015.01 1015.00 1014.10 1012.13 1009.92 1008.41 1007.99 1007.44 1005.51 1004.25 1003.39 1002.47 1001.76
1023.40 1023.04 1022.66 1022.26 1021.90 1021.46 1021.01 1020.53 1019.99 1019.49 1019.15 1018.81 1018.27 1017.54 1015.81 1014.87 1016.24 1017.32 1017.72 1017.27 1016.71 1015.77 1015.32 1015.05 1014.87 1014.85 1014.91 1014.98 1015.20 1014.99 1014.78 1014.98 1015.14 1015.29 1015.39 1015.54 1014.65 1012.93 1010.02 1008.82 1008.70 1007.99 1007.46 1006.21 1004.78 1003.74 1001.14
1023.31 1022.89 1022.51 1022.07 1021.75 1021.39 1021.01 1020.57 1020.10 1019.70 1019.38 1019.21 1018.66 1017.98 1017.55 1017.73 1018.88 1018.83 1018.90 1018.25 1017.45 1016.88 1016.43 1016.29 1016.03 1015.85 1015.79 1015.65 1015.64 1015.29 1015.18 1015.28 1015.50 1015.69 1015.97 1015.97 1015.29 1014.01 1012.18 1011.13 1011.52 1009.86 1008.77 1007.90 1006.03 1003.39 1001.97
1023.21 1022.81 1022.39 1021.99 1021.60 1021.26 1020.92 1020.49 1020.13 1019.81 1019.50 1019.35 1019.44 1019.88 1020.05 1019.28 1019.14 1019.34 1019.32 1019.08 1018.51 1017.95 1017.49 1017.18 1016.74 1016.75 1016.79 1016.52 1016.16 1015.77 1015.64 1015.75 1015.98 1016.10 1016.49 1016.30 1015.39 1014.81 1013.70 1012.92 1012.24 1010.83 1009.56 1008.25 1006.95 1004.70 1002.86
1023.06 1022.75 1022.25 1021.81 1021.46 1021.09 1020.67 1020.38 1020.17 1019.87 1019.66 1019.64 1019.99 1020.22 1020.31 1020.13 1020.13 1019.89 1019.69 1019.55 1019.30 1018.94 1018.93 1018.17 1017.98 1017.63 1017.63 1017.41 1016.64 1016.36 1016.30 1016.02 1015.77 1016.40 1016.44 1016.70 1015.62 1015.10 1013.85 1012.83 1011.46 1010.06 1008.56 1007.66 1006.80 1005.52 1004.53
1022.95 1022.51 1022.09 1021.60 1021.22 1020.87 1020.51 1020.24 1020.08 1020.02 1019.90 1020.03 1020.67 1020.81 1020.73 1020.58 1020.31 1020.22 1020.09 1019.84 1019.54 1019.43 1018.78 1018.28 1018.12 1017.98 1017.75 1017.66 1017.47 1017.36 1017.34 1017.03 1016.92 1016.37 1016.34 1016.51 1015.89 1015.30 1013.55 1012.59 1011.55 1009.02 1006.58 1006.18 1005.77 1005.22 1004.45
1022.67 1022.27 1021.82 1021.30 1021.00 1020.75 1020.45 1020.21 1020.06 1020.07 1020.17 1020.49 1020.71 1020.80 1020.79 1020.72 1020.47 1020.37 1020.15 1019.89 1019.47 1018.95 1018.43 1018.11 1017.99 1017.69 1017.54 1017.46 1017.48 1017.01 1016.73 1016.72 1016.85 1016.47 1016.45 1016.41 1016.60 1016.27 1014.36 1013.50 1010.53 1007.01 1005.49 1004.82 1005.94 1006.01 1005.37
1022.39 1022.00 1021.58 1021.11 1020.81 1020.65 1020.42 1020.21 1020.08 1020.07 1020.16 1020.50 1020.73 1020.85 1020.88 1020.81 1020.51 1020.15 1019.81 1019.67 1019.19 1018.71 1018.45 1018.06 1017.72 1017.42 1017.45 1017.47 1017.10 1016.47 1016.29 1016.29 1015.59 1015.60 1015.77 1016.07 1016.43 1015.84 1014.80 1012.79 1010.22 1007.91 1007.65 1007.18 1006.16 1006.41 1006.33
1022.21 1021.71 1021.43 1021.00 1020.69 1020.47 1020.27 1020.11 1020.02 1020.04 1020.13 1020.39 1020.65 1020.79 1021.00 1021.00 1020.40 1020.11 1019.73 1019.43 1019.13 1019.01 1018.60 1017.97 1017.45 1017.13 1017.28 1016.98 1016.83 1016.11 1015.32 1015.09 1014.44 1014.54 1014.84 1015.73 1016.05 1016.07 1015.25 1013.43 1010.39 1009.45 1008.99 1008.43 1007.59 1006.78 1007.28
1022.00 1021.53 1021.24 1020.84 1020.59 1020.37 1020.14 1020.03 1019.96 1019.91 1020.07 1020.27 1020.49 1020.66 1021.01 1020.89 1019.98 1019.99 1019.61 1019.38 1019.20 1019.13 1018.97 1018.41 1017.73 1017.20 1017.33 1016.92 1016.63 1015.95 1015.23 1015.19 1014.55 1014.22 1015.00 1015.47 1015.90 1015.63 1015.15 1014.57 1011.89 1010.95 1010.08 1008.28 1007.93 1008.57 1008.09
1021.67 1021.25 1021.00 1020.66 1020.43 1020.25 1020.01 1019.93 1019.91 1019.85 1019.97 1020.15 1020.61 1020.66 1021.01 1020.81 1019.87 1019.67 1019.36 1019.25 1018.79 1018.96 1018.96 1018.73 1018.05 1017.83 1017.55 1017.41 1016.93 1016.39 1015.87 1015.25 1015.00 1014.51 1014.57 1015.05 1015.39 1015.19 1015.25 1014.67 1012.99 1011.72 1010.08 1008.67 1009.65 1009.02 1008.81
1021.49 1021.03 1020.78 1020.49 1020.22 1020.03 1019.90 1019.74 1019.70 1019.78 1019.87 1020.07 1020.43 1020.63 1020.86 1020.88 1019.91 1019.60 1019.19 1018.97 1018.85 1018.67 1018.75 1018.80 1018.51 1018.11 1017.99 1017.96 1017.53 1016.99 1016.23 1015.67 1015.00 1015.08 1015.30 1015.59 1015.17 1014.74 1014.50 1013.71 1013.20 1012.46 1011.71 1011.05 1010.33 1009.66 1009.25
Thickness
5658 5660 5662 5664 5666 5668 5671 5674 5677 5681 5684 5688 5693 5698 5702 5707 5713 5719 5722 5726 5730 5735 5738 5740 5741 5741 5741 5749 5762 5777 5783 5783 5781 5779 5774 5770 5763 5763 5757 5762 5766 5766 5775 5785 5789 5794 5795
5655 5657 5659 5661 5663 5666 5668 5671 5674 5677 5681 5685 5691 5695 5699 5705 5711 5717 5721 5725 5729 5733 5736 5738 5736 5735 5739 5748 5765 5768 5774 5774 5775 5774 5770 5768 5763 5766 5760 5758 5763 5776 5774 5780 5788 5792 5796
5653 5655 5656 5658 5660 5662 5664 5667 5670 5673 5677 5681 5687 5692 5697 5701 5708 5714 5718 5721 5725 5729 5731 5733 5732 5732 5736 5747 5760 5762 5766 5765 5767 5768 5763 5767 5769 5765 5764 5758 5770 5772 5763 5777 5788 5794 5793
5652 5653 5654 5655 5657 5658 5660 5662 5665 5668 5671 5675 5679 5686 5693 5697 5703 5709 5716 5719 5722 5724 5724 5726 5726 5728 5738 5753 5755 5757 5759 5756 5758 5760 5762 5761 5765 5761 5758 5768 5763 5761 5764 5761 5791 5797 5801
5651 5651 5651 5651 5653 5654 5655 5657 5660 5662 5666 5670 5674 5679 5687 5693 5698 5701 5708 5714 5715 5715 5715 5717 5719 5721 5731 5750 5746 5750 5752 5750 5748 5749 5752 5758 5755 5747 5752 5746 5746 5751 5761 5760 5776 5800 5800
5646 5646 5646 5646 5646 5647 5649 5652 5654 5657 5660 5665 5670 5675 5682 5687 5693 5696 5700 5703 5704 5706 5707 5709 5710 5714 5728 5722 5736 5741 5745 5747 5740 5736 5735 5738 5741 5735 5739 5739 5739 5753 5757 5765 5773 5794 5798
5639 5639 5639 5639 5640 5641 5642 5645 5649 5654 5656 5659 5663 5667 5673 5678 5684 5689 5691 5694 5696 5697 5701 5697 5696 5698 5709 5717 5729 5730 5734 5734 5733 5726 5718 5726 5724 5735 5741 5742 5746 5748 5756 5765 5778 5796 5790
5634 5633 5633 5633 5633 5635 5636 5639 5642 5646 5649 5649 5651 5655 5662 5669 5674 5679 5678 5680 5671 5667 5677 5684 5685 5687 5693 5698 5701 5713 5725 5714 5715 5709 5711 5708 5719 5740 5734 5729 5730 5734 5739 5755 5772 5782 5785
5626 5625 5625 5626 5627 5627 5628 5629 5631 5633 5636 5639 5642 5648 5655 5661 5665 5666 5663 5660 5657 5655 5660 5671 5676 5679 5681 5685 5683 5688 5698 5698 5701 5697 5699 5707 5724 5729 5721 5718 5717 5726 5730 5742 5750 5760 5780
5620 5617 5616 5616 5617 5617 5618 5619 5621 5623 5626 5631 5635 5639 5644 5652 5654 5646 5649 5645 5645 5642 5649 5651 5658 5661 5668 5669 5666 5677 5679 5681 5687 5689 5689 5695 5719 5711 5711 5714 5716 5712 5739 5737 5737 5736 5746
5613 5611 5609 5608 5608 5608 5609 5611 5613 5615 5618 5622 5624 5627 5630 5633 5635 5636 5632 5633 5635 5634 5631 5636 5642 5655 5651 5649 5645 5657 5661 5666 5665 5673 5676 5693 5705 5702 5701 5715 5716 5723 5727 5728 5730 5723 5731
5606 5603 5601 5600 5599 5599 5600 5602 5604 5605 5607 5612 5616 5619 5619 5621 5620 5625 5622 5623 5628 5621 5615 5620 5628 5624 5629 5629 5630 5636 5639 5645 5645 5652 5662 5674 5704 5707 5710 5714 5713 5724 5715 5717 5718 5715 5697
5601 5597 5595 5594 5592 5589 5590 5592 5594 5597 5598 5601 5605 5609 5610 5609 5611 5613 5613 5618 5610 5609 5610 5604 5607 5609 5609 5608 5614 5616 5615 5616 5621 5634 5637 5650 5675 5695 5704 5699 5704 5704 5697 5684 5676 5681 5701
5595 5591 5588 5584 5582 5581 5581 5581 5583 5585 5589 5591 5596 5600 5601 5601 5601 5603 5610 5606 5593 5600 5596 5599 5596 5594 5594 5594 5595 5599 5600 5598 5600 5603 5612 5626 5652 5669 5689 5694 5691 5697 5699 5689 5675 5698 5714
5588 5583 5579 5575 5572 5570 5571 5571 5571 5574 5578 5583 5588 5592 5594 5596 5596 5597 5602 5589 5590 5588 5589 5585 5581 5580 5579 5580 5580 5584 5584 5581 5580 5586 5595 5605 5620 5643 5656 5667 5689 5692 5684 5719 5698 5705 5711
5579 5574 5570 5566 5563 5561 5560 5561 5562 5565 5570 5576 5577 5581 5587 5589 5591 5594 5590 5576 5576 5576 5576 5574 5570 5570 5566 5566 5566 5567 5566 5565 5564 5568 5575 5578 5593 5624 5635 5652 5674 5691 5706 5672 5683 5676 5687
5571 5565 5561 5557 5554 5551 5550 5552 5555 5559 5564 5569 5571 5585 5583 5586 5589 5586 5575 5562 5561 5564 5562 5559 5557 5557 5554 5550 5549 5550 5553 5547 5548 5551 5558 5561 5568 5609 5617 5636 5660 5668 5667 5683 5699 5700 5698
5566 5560 5555 5550 5547 5545 5544 5545 5548 5551 5555 5559 5558 5580 5575 5581 5576 5548 5553 5537 5538 5550 5549 5546 5543 5540 5536 5532 5529 5530 5537 5539 5534 5534 5536 5542 5550 5569 5600 5626 5633 5634 5658 5685 5674 5685 5701
5562 5556 5551 5547 5542 5539 5538 5536 5538 5540 5544 5545 5544 5544 5563 5568 5554 5539 5525 5528 5528 5533 5532 5528 5525 5525 5523 5518 5511 5514 5518 5520 5521 5520 5521 5525 5532 5550 5595 5615 5614 5619 5626 5644 5667 5677 5694
5559 5555 5551 5547 5543 5538 5534 5531 5530 5532 5536 5537 5544 5557 5549 5538 5519 5515 5501 5512 5514 5516 5512 5507 5505 5503 5499 5499 5499 5501 5504 5507 5508 5506 5507 5510 5517 5532 5559 5569 5560 5582 5602 5617 5640 5672 5690
5559 5555 5551 5547 5543 5539 5534 5532 5529 5530 5532 5533 5530 5524 5514 5528 5525 5513 5505 5498 5497 5496 5498 5493 5489 5484 5481 5482 5486 5489 5492 5492 5493 5495 5489 5496 5506 5510 5528 5540 5545 5563 5580 5603 5613 5655 5668
5561 5555 5552 5548 5543 5539 5536 5532 5530 5529 5529 5528 5529 5522 5514 5514 5505 5504 5500 5494 5486 5480 5467 5468 5463 5468 5459 5460 5479 5478 5479 5486 5489 5482 5483 5479 5494 5495 5510 5533 5548 5561 5586 5601 5617 5637 5645
5561 5557 5552 5549 5544 5541 5538 5535 5532 5529 5527 5525 5515 5511 5510 5511 5508 5501 5494 5487 5478 5466 5466 5466 5458 5451 5449 5449 5455 5458 5457 5460 5460 5474 5475 5476 5482 5491 5507 5528 5534 5557 5597 5614 5628 5640 5659
5562 5558 5555 5552 5547 5543 5540 5536 5533 5530 5527 5522 5517 5513 5511 5510 5506 5498 5489 5481 5474 5468 5464 5461 5457 5454 5457 5458 5456 5459 5458 5450 5445 5459 5467 5466 5455 5467 5499 5503 5529 5592 5617 5632 5619 5628 5645
5565 5560 5557 5555 5551 5546 5543 5538 5536 5533 5530 5524 5518 5514 5509 5508 5503 5498 5490 5477 5470 5464 5462 5459 5460 5460 5456 5452 5447 5454 5449 5442 5452 5458 5463 5466 5458 5474 5484 5509 5547 5577 5579 5588 5612 5617 5634
5567 5564 5559 5558 5554 5549 5546 5542 5539 5536 5532 5526 5520 5514 5507 5503 5503 5494 5486 5476 5466 5458 5458 5464 5466 5463 5454 5453 5446 5449 5461 5459 5466 5463 5466 5462 5463 5464 5474 5504 5552 5554 5566 5580 5599 5619 5624
5569 5566 5562 5561 5557 5553 5550 5546 5543 5540 5536 5529 5523 5515 5507 5501 5506 5494 5486 5474 5466 5461 5455 5459 5462 5462 5454 5449 5447 5454 5457 5443 5454 5461 5443 5446 5450 5464 5481 5482 5528 5531 5552 5587 5597 5603 5615
5572 5569 5565 5563 5560 5557 5554 5550 5546 5542 5537 5532 5524 5517 5508 5503 5506 5497 5491 5480 5477 5472 5466 5463 5470 5459 5454 5451 5452 5450 5448 5450 5450 5462 5458 5457 5463 5480 5485 5489 5523 5520 5555 5583 5577 5596 5607
5573 5570 5566 5565 5563 5559 5556 5552 5549 5544 5538 5532 5526 5516 5508 5502 5506 5500 5496 5489 5484 5480 5474 5465 5462 5462 5455 5448 5448 5448 5452 5451 5462 5466 5459 5465 5472 5488 5493 5506 5506 5519 5533 5553 5572 5588 5603